STARLINK-1541, 46052

Orbit data source: Space-Track

STARLINK-1541, 46052 is a payload satellite owned by SpaceX/Seattle (US) in LEO that was launched on Fri, 07 Aug 2020 UTC via an FALCON 9 launch vehicle from the Air Force Eastern Test Range (AFETR). Payload-class satellites include a variety of spacecraft equipped with specific instruments for various scientific and technological missions. These include communications satellites like Starlink; space stations such as the ISS; scientific satellites like the Hubble; Earth observation satellites from companies like Planet Labs, Umbra, and HawkEye 360; GPS; miniature CubeSats for education and research; and military/defense satellites.

Loading next visibility...
Identifier
46052, 2020-055AB
Orbit
LEO
Country
Flag of USUS
Related business
Manufacturer
SpaceX/Seattle
Mission
Operational Commercial Communications
Bus & Motor
STARLINK, Unknown motor
Mass
260 kg wet, ~248 kg dry
Launch date (UTC)
2020-08-07 (5 years ago)
Launch vehicle
FALCON 9
Launch site
Air Force Eastern Test Range (AFETR)
Object type
Payload
Rocket body
Debris
Shape & HBR
Box + 1 Pan, 10.1 m
Radar Cross Section
13.562 m², Large (>1 m²)

Expand to show TLE details & history
Last TLE update: 14 hours ago

TLE from 14 hours ago
0 STARLINK-1541
1 46052U 20055AB  25341.26435214  .00001914  00000-0  14738-3 0  9992
2 46052  53.0544 171.5300 0001388  83.2069 276.9078 15.06398860295073
Epoch: 2025-12-07T06:20Z
TLE epoch observation values (Epoch: 2025-12-07T06:20:40.024Z)
Latitude
-0.00003°
Longitude
0.08298°
Altitude
547.979 km
Speed
7.589 km/s
True Right ascension
11h 26m 07s
True Declination
0° 00' 00"
Sunlit
Object was in daylight at epoch
Visualization orbit readout
Latitude
Unknown
Longitude
Unknown
Altitude
Unknown
Speed
Unknown
Apparent Right ascension
Unknown
Apparent Declination
Unknown
Sunlit
N/A
Visualization observer readout
Local Sidereal Time
18:45:40
Azimuth
Unknown
Elevation
Unknown
Doppler factor
Unknown
Orbital elements
Apogee altitude
548.447 km
Perigee altitude
546.525 km
Semi-major axis
6,925.623 km
Eccentricity
0.00014
Inclination
53.0544°
RAAN
171.53°
Arg. of periapsis
83.2069°
True anomaly
276.89201°
Mean anomaly
276.9078°
Eccentric anomaly
276.8999°
Mean motion
3.76578 °/min
Orbital period
95.6 mins
BSTAR
0.00014738
Loading maneuver chart data...
Computing Atmospheric mass density...

Documentation

Showing up to 5 results
|